Вернуться в каталог

USA 59

LostВоенныеHEO
NORAD 20641·PAYLOAD·🇺🇸 United States

Запущен Jun 8, 1990 с Cape Canaveral Space Force Station

Loading…

Ближайшие Пролёты (ближайшие 24 часа)

TLE

УстаревшееSource: Space-Track

Эпоха: Jul 28, 2026, 11:59 UTC

1 20641U 90050A   26209.49981546 -.00000019  00000-0  00000-0 0  9993
2 20641  63.4036  59.2782 4067893 266.3810  47.5986  6.02594479 48820

Отслеживайте USA 59 в реальном времени с AllMySat

Download on the App Store